Date String (YYYY-MM-DD hh:mm:ss) UTC,Instrument flags,absolute air pressure of the measurement (hPa),sample flow rate (lpm),inlet stack bypass flow (lpm),air temperature of the measurement (°C),ambient temperature measured by the external sensor (°C),aerosol sample conditioner tube jacket temperature (°C),OPC LED temperature (°C),internal box temperature (°C),relative humidity of the measurement (%),span deviation,mass concentration of particles derived from Lorenz-Mie calculation of OPC scattering (μg/m³),mass concentration of particles derived from Lorenz-Mie calculation of OPC scattering (μg/m³),mass concentration of particles derived from Lorenz-Mie calculation of OPC scattering (μg/m³)
DateTimeUTC,F1_M11,P_M11,Q1_M11,Q2_M11,T1_M11,T2_M11,T3_M11,T4_M11,T5_M11,U1_M11,ZSPAN_M11,X2_M11,X0_M11,X1_M11
2024-02-29 14:00:00,SystemResetWarning,0826.2,5.00,000.00,018.2,017.3,000.0,026.9,020.0,09.7,0000.0,0004.39,0013.40,0003.10
2024-02-29 14:01:00,SystemResetWarning,0826.3,5.00,000.00,018.2,017.3,000.0,026.9,020.0,10.1,0000.0,0004.38,0012.45,0003.07
2024-02-29 14:02:00,SystemResetWarning,0826.2,5.01,000.00,018.2,017.3,000.0,026.9,020.0,10.1,0000.0,0004.37,0012.54,0003.06
2024-02-29 14:03:00,SystemResetWarning,0826.2,5.00,000.00,018.2,017.2,000.0,026.9,020.0,10.1,0000.0,0004.39,0012.82,0003.06
2024-02-29 14:04:00,SystemResetWarning,0826.2,5.00,000.00,018.2,017.2,000.0,026.9,020.0,10.1,0000.0,0004.41,0012.85,0003.06
2024-02-29 14:05:00,SystemResetWarning,0826.2,5.00,000.00,018.2,017.2,000.0,026.9,020.0,09.7,0000.0,0004.44,0013.47,0003.07
2024-02-29 14:06:00,SystemResetWarning,0826.2,4.99,000.00,018.2,017.2,000.0,026.9,020.0,09.8,0000.0,0004.45,0013.65,0003.08
2024-02-29 14:07:00,SystemResetWarning,0826.2,4.99,000.00,018.3,017.3,000.0,027.0,020.1,10.5,0000.0,0004.50,0013.04,0003.10
2024-02-29 14:08:00,SystemResetWarning,0826.3,5.02,000.00,018.4,018.1,000.0,027.0,020.5,10.8,0000.0,0004.50,0013.03,0003.11
2024-02-29 14:09:00,SystemResetWarning,0826.3,4.99,000.00,018.6,018.7,000.0,027.0,020.8,10.6,0000.0,0004.54,0013.11,0003.14
2024-02-29 14:10:00,SystemResetWarning,0826.3,4.98,000.00,018.7,018.7,000.0,027.0,020.8,10.5,0000.0,0004.53,0012.76,0003.15
2024-02-29 14:11:00,SystemResetWarning,0826.3,5.00,000.00,018.7,018.6,000.0,027.0,020.7,10.3,0000.0,0004.51,0012.43,0003.15
2024-02-29 14:12:00,SystemResetWarning,0826.3,5.01,000.00,018.7,018.5,000.0,027.0,020.5,10.0,0000.0,0004.53,0012.55,0003.16
2024-02-29 14:13:00,SystemResetWarning,0826.3,5.01,000.00,018.7,018.4,000.0,027.0,020.5,10.3,0000.0,0004.56,0012.34,0003.16
2024-02-29 14:14:00,SystemResetWarning,0826.2,5.01,000.00,018.6,018.3,000.0,027.0,020.4,10.4,0000.0,0004.52,0011.98,0003.15
2024-02-29 14:15:00,SystemResetWarning,0826.2,5.00,000.00,018.6,018.2,000.0,027.0,020.4,10.1,0000.0,0004.52,0012.13,0003.14
2024-02-29 14:16:00,SystemResetWarning,0826.2,4.99,000.00,018.6,018.1,000.0,027.0,020.4,09.8,0000.0,0004.49,0011.76,0003.14
2024-02-29 14:17:00,SystemResetWarning,0826.2,5.00,000.00,018.6,018.0,000.0,027.0,020.3,09.4,0000.0,0004.48,0012.49,0003.13
2024-02-29 14:18:00,SystemResetWarning,0826.2,5.02,000.00,018.6,018.0,000.0,027.0,020.3,09.7,0000.0,0004.45,0012.62,0003.12
2024-02-29 14:19:00,SystemResetWarning,0826.2,5.01,000.00,018.5,017.9,000.0,027.0,020.2,10.3,0000.0,0004.42,0012.71,0003.11
2024-02-29 14:20:00,SystemResetWarning,0826.2,4.99,000.00,018.5,017.8,000.0,027.0,020.2,10.5,0000.0,0004.41,0013.34,0003.12
2024-02-29 14:21:00,SystemResetWarning,0826.2,4.99,000.00,018.5,017.8,000.0,027.0,020.1,10.7,0000.0,0004.47,0014.19,0003.14
2024-02-29 14:22:00,SystemResetWarning,0826.2,5.00,000.00,018.4,017.7,000.0,027.0,020.1,10.9,0000.0,0004.52,0014.52,0003.16
2024-02-29 14:23:00,SystemResetWarning,0826.2,5.00,000.00,018.4,017.7,000.0,027.0,020.1,10.5,0000.0,0004.56,0014.62,0003.17
2024-02-29 14:24:00,SystemResetWarning,0826.1,5.00,000.00,018.4,017.6,000.0,026.9,020.1,09.8,0000.0,0004.56,0014.57,0003.19
2024-02-29 14:25:00,SystemResetWarning,0826.2,5.01,000.00,018.4,017.6,000.0,026.9,020.1,09.7,0000.0,0004.55,0014.88,0003.20
2024-02-29 14:26:00,SystemResetWarning,0826.2,5.00,000.00,018.4,017.6,000.0,026.9,020.0,09.7,0000.0,0004.56,0014.67,0003.20
2024-02-29 14:27:00,SystemResetWarning,0826.2,5.00,000.00,018.3,017.6,000.0,026.9,020.0,10.0,0000.0,0004.58,0014.76,0003.21
2024-02-29 14:28:00,SystemResetWarning,0826.1,5.01,000.00,018.3,017.5,000.0,026.9,020.0,10.2,0000.0,0004.60,0014.13,0003.20
2024-02-29 14:29:00,SystemResetWarning,0826.2,4.99,000.00,018.3,017.6,000.0,026.9,020.0,10.2,0000.0,0004.63,0013.92,0003.21
2024-02-29 14:30:00,SystemResetWarning,0826.2,4.98,000.00,018.3,017.6,000.0,026.9,020.0,10.2,0000.0,0004.69,0014.00,0003.22
2024-02-29 14:31:00,SystemResetWarning,0826.2,5.00,000.00,018.3,017.6,000.0,026.9,020.0,09.9,0000.0,0004.66,0013.49,0003.20
2024-02-29 14:32:00,SystemResetWarning,0826.2,5.01,000.00,018.3,017.6,000.0,026.9,020.0,09.7,0000.0,0004.59,0012.35,0003.19
2024-02-29 14:33:00,SystemResetWarning,0826.2,5.01,000.00,018.3,017.6,000.0,026.9,020.0,10.1,0000.0,0004.58,0012.29,0003.18
2024-02-29 14:34:00,SystemResetWarning,0826.2,4.99,000.00,018.3,017.6,000.0,026.9,020.0,10.3,0000.0,0004.53,0012.30,0003.17
2024-02-29 14:35:00,SystemResetWarning,0826.2,4.99,000.00,018.3,017.6,000.0,026.9,020.0,10.3,0000.0,0004.53,0012.42,0003.16
2024-02-29 14:36:00,SystemResetWarning,0826.2,5.00,000.00,018.3,017.6,000.0,026.8,020.0,09.9,0000.0,0004.55,0012.14,0003.16
2024-02-29 14:37:00,SystemResetWarning,0826.2,5.00,000.00,018.3,017.7,000.0,026.8,020.0,09.9,0000.0,0004.52,0011.68,0003.14
2024-02-29 14:38:00,SystemResetWarning,0826.2,5.00,000.00,018.3,017.7,000.0,026.8,020.0,09.6,0000.0,0004.51,0011.01,0003.12
2024-02-29 14:39:00,SystemResetWarning,0826.2,5.00,000.00,018.3,017.7,000.0,026.8,020.0,08.9,0000.0,0004.53,0010.66,0003.11
2024-02-29 14:40:00,SystemResetWarning,0826.2,5.00,000.00,018.4,017.7,000.0,026.8,020.0,08.6,0000.0,0004.53,0011.13,0003.11
2024-02-29 14:41:00,SystemResetWarning,0826.2,5.01,000.00,018.4,017.7,000.0,026.8,020.1,08.7,0000.0,0004.50,0011.77,0003.11
2024-02-29 14:42:00,SystemResetWarning,0826.2,5.00,000.00,018.4,017.7,000.0,026.8,020.0,08.7,0000.0,0004.47,0011.96,0003.09
2024-02-29 14:43:00,SystemResetWarning,0826.2,5.00,000.00,018.4,017.7,000.0,026.8,020.0,08.7,0000.0,0004.51,0012.83,0003.08
2024-02-29 14:44:00,SystemResetWarning,0826.3,5.00,000.00,018.3,017.7,000.0,026.8,020.0,08.8,0000.0,0004.46,0013.24,0003.06
2024-02-29 14:45:00,SystemResetWarning,0826.4,5.00,000.00,018.3,017.6,000.0,026.8,020.0,09.0,0000.0,0004.42,0013.31,0003.05
2024-02-29 14:46:00,SystemResetWarning,0826.4,4.99,000.00,018.3,017.6,000.0,026.8,020.0,09.4,0000.0,0004.41,0013.48,0002.99
2024-02-29 14:47:00,SystemResetWarning,0826.3,5.00,000.00,018.3,017.6,000.0,026.8,020.0,10.8,0000.0,0004.39,0013.41,0002.97
2024-02-29 14:48:00,SystemResetWarning,0826.3,5.00,000.00,018.4,017.7,000.0,026.8,020.0,11.4,0000.0,0004.37,0013.38,0002.95
2024-02-29 14:49:00,SystemResetWarning,0826.3,5.00,000.00,018.4,017.7,000.0,026.8,020.0,10.9,0000.0,0004.33,0013.31,0002.95
2024-02-29 14:50:00,SystemResetWarning,0826.3,5.00,000.00,018.4,017.7,000.0,026.8,020.0,11.1,0000.0,0004.33,0013.35,0002.93
2024-02-29 14:51:00,SystemResetWarning,0826.3,5.00,000.00,018.4,017.7,000.0,026.8,020.0,10.5,0000.0,0004.29,0012.73,0002.88
2024-02-29 14:52:00,SystemResetWarning,0826.2,5.00,000.00,018.4,017.7,000.0,026.8,020.0,10.0,0000.0,0004.25,0012.01,0002.84
2024-02-29 14:53:00,SystemResetWarning,0826.2,5.00,000.00,018.4,017.8,000.0,026.8,020.0,10.0,0000.0,0004.24,0011.71,0002.82
2024-02-29 14:54:00,SystemResetWarning,0826.2,5.00,000.00,018.4,017.8,000.0,026.8,020.0,10.3,0000.0,0004.18,0010.76,0002.79
2024-02-29 14:55:00,SystemResetWarning,0826.2,5.00,000.00,018.4,017.8,000.0,026.8,020.0,10.0,0000.0,0004.18,0010.63,0002.78
2024-02-29 14:56:00,SystemResetWarning,0826.2,5.00,000.00,018.4,017.8,000.0,026.8,020.0,10.3,0000.0,0004.19,0010.64,0002.76
2024-02-29 14:57:00,SystemResetWarning,0826.2,5.00,000.00,018.4,017.8,000.0,026.7,020.0,10.6,0000.0,0004.18,0010.79,0002.75
2024-02-29 14:58:00,SystemResetWarning,0826.2,5.00,000.00,018.4,017.8,000.0,026.7,020.0,10.1,0000.0,0004.14,0010.58,0002.72
2024-02-29 14:59:00,SystemResetWarning,0826.2,5.00,000.00,018.4,017.8,000.0,026.8,020.0,09.9,0000.0,0004.13,0010.57,0002.71
